#timestamp,LO_Frequency,Hit,StdDev 
1502960415.4,286046999.4,N,0.4
1502960435.3,286046999.6,N,0.4
1502960455.1,286046998.1,Y,0.0
1502960456.0,286046998.1,P,0.5
1502960475.8,286046998.2,P,0.5
1502960495.7,286046999.0,N,0.5
1502960515.5,286046999.2,N,0.5
1502960535.3,286046999.1,N,0.5
1502960555.2,286046996.6,Y,0.0
1502960575.9,286046998.4,P,0.2
1502960595.7,286046998.2,P,0.2
1502960615.6,286046998.8,P,0.3
1502960635.4,286046999.9,N,0.6
1502960655.2,286047000.6,N,0.9
1502960675.1,286046999.0,N,0.8
1502960676.0,286046999.0,N,0.7
1502960695.8,286046998.7,N,0.7
1502960715.6,286046999.5,N,0.7
1502960735.5,286046996.5,Y,0.0
1502960755.3,286047000.7,P,0.8
1502960775.1,286047000.5,N,0.7
1502960795.9,286047000.9,N,0.7
1502960815.7,286047000.9,N,0.7
1502960835.5,286046998.2,N,1.0
1502960855.4,286047000.9,N,1.0
1502960875.2,286046998.6,N,1.1
1502960895.0,286046998.1,N,1.2
1502960895.9,286046998.1,N,1.2
1502960915.8,286047000.8,N,1.2
1502960935.6,286046998.5,N,1.2
1502960955.5,286046998.3,N,1.2
1502960975.3,286046996.5,N,1.4
1502960995.1,286046999.1,N,1.4
1502961015.9,286046998.8,N,1.3
1502961035.7,286047001.1,N,1.3
1502961055.5,286047000.4,N,1.3
1502961075.4,286047001.0,N,1.3
1502961095.2,286046999.4,N,1.3
1502961115.0,286046996.5,N,1.4
1502961115.9,286046996.5,N,1.5
1502961135.8,286046996.9,N,1.6
1502961155.6,286046997.3,N,1.6
1502961175.4,286046995.3,Y,0.0
1502961195.3,286046997.0,P,1.0
1502961215.1,286047011.9,P,6.6
1502961235.8,286046997.3,N,6.2
1502961255.7,286046997.9,N,5.7
1502961275.5,286046997.9,N,5.3
1502961295.3,286046995.0,N,5.2
1502961315.2,286046997.6,N,4.9
1502961335.9,286046995.0,N,4.8
1502961355.7,286046995.1,N,4.7
1502961375.6,286046995.8,N,4.5
1502961395.4,286046995.7,N,4.4
1502961415.2,286046995.7,N,4.3
1502961435.1,286046995.2,N,4.2
1502961436.0,286046995.2,N,4.1
1502961455.8,286046997.5,N,3.9
1502961475.6,286046997.5,N,3.8
1502961495.5,286046997.8,N,3.7
1502961515.3,286046995.3,N,3.6
1502961535.2,286046995.2,N,3.6
1502961555.9,286046995.3,N,3.5
1502961575.7,286046995.3,N,3.5
1502961595.6,286046997.9,N,3.4
1502961615.4,286046995.2,N,3.3
1502961635.2,286046997.9,N,3.3
1502961655.1,286046997.5,N,3.2
1502961656.0,286046997.5,N,3.2
1502961675.8,286046997.4,N,3.1
1502961695.6,286046996.9,N,3.0
1502961715.5,286046999.1,N,3.0
1502961735.3,286046996.9,N,3.0
1502961755.1,286046997.0,N,3.0
1502961775.9,286046996.9,N,1.2
1502961795.7,286046999.1,N,1.3
1502961815.5,286046996.6,N,1.2
1502961835.4,286046999.3,N,1.3
1502961855.2,286046998.7,N,1.3
1502961875.0,286046998.5,N,1.4
1502961875.9,286046998.5,N,1.4
1502961895.8,286046998.5,N,1.3
1502961915.6,286046998.1,N,1.3
1502961935.4,286047000.5,N,1.4
1502961955.3,286047000.4,N,1.5
1502961975.1,286047011.9,Y,0.0
1502961995.8,286047003.8,P,3.2
1502962015.7,286047004.4,N,3.2
1502962035.5,286047004.4,N,2.9
1502962055.3,286047004.2,N,2.7
1502962075.2,286047003.1,N,2.5
1502962095.9,286047003.0,N,2.3
1502962115.7,286047003.3,N,2.2
1502962135.6,286047002.9,N,2.0
1502962155.4,286047003.5,N,1.9
1502962175.2,286047003.2,N,1.8
1502962195.1,286047005.5,N,1.9
1502962196.0,286047005.5,N,1.9
1502962215.8,286047006.0,Y,0.0
1502962235.6,286046999.8,P,1.8
1502962255.5,286047000.1,N,1.6
1502962275.3,286047000.2,N,1.5
1502962295.1,286047002.3,N,1.4
1502962315.9,286046999.8,N,1.4
1502962335.7,286047002.4,N,1.4
1502962355.5,286047002.5,N,1.4
1502962375.4,286047002.7,N,1.4
1502962395.2,286047002.6,N,1.3
1502962415.0,286047002.5,N,1.3
1502962415.9,286047002.5,N,1.3
1502962435.8,286047002.2,N,1.2
1502962455.6,286047002.7,N,1.2
1502962475.4,286047002.8,N,1.2
1502962495.3,286047001.6,N,1.2
1502962515.1,286047001.3,N,1.1
1502962535.8,286047001.8,N,1.1
1502962555.7,286047001.3,N,1.1
1502962575.5,286047001.7,N,1.1
1502962595.3,286047001.9,N,1.0
1502962615.2,286047002.1,N,1.0
1502962635.0,286047004.0,Y,0.0
1502962635.9,286047004.0,P,1.1
1502962655.8,286046999.7,N,1.8
1502962675.6,286047002.4,N,1.5
1502962695.4,286046999.8,N,1.6
1502962715.3,286047002.5,N,1.5
1502962735.1,286047002.6,N,1.5
1502962736.0,286047002.6,N,1.4
1502962755.8,286047002.2,N,1.3
1502962775.7,286047002.2,N,1.2
1502962795.5,286047002.1,N,1.2
1502962815.3,286047002.4,N,1.1
1502962835.2,286047002.2,N,1.1
1502962855.0,286047002.0,N,1.1
1502962855.9,286047002.0,N,1.0
1502962875.7,286047002.8,N,1.0
1502962895.6,286047002.4,N,1.0
1502962915.4,286047002.1,N,0.9
1502962935.2,286047002.1,N,0.9
1502962955.1,286047001.9,N,0.9
1502962956.0,286047001.9,N,0.9
1502962975.8,286047001.5,N,0.9
1502962995.6,286047002.3,N,0.9
1502963015.5,286047001.9,N,0.8
1502963035.3,286047001.4,N,0.8
1502963055.2,286047004.1,Y,0.0
1502963075.9,286047002.7,P,0.3
1502963095.7,286047002.8,P,0.3
1502963115.6,286047000.2,N,1.0
1502963135.4,286046999.8,N,1.3
1502963155.2,286047000.1,N,1.3
1502963175.1,286047002.3,N,1.2
1502963176.0,286047002.3,N,1.2
1502963195.8,286047000.2,N,1.2
1502963215.6,286047000.2,N,1.2
1502963235.5,286047002.3,N,1.2
1502963255.3,286047000.2,N,1.2
1502963275.1,286047000.1,N,1.2
1502963295.9,286047002.1,N,1.1
1502963315.7,286047002.8,N,1.2
1502963335.5,286047002.7,N,1.2
1502963355.4,286047002.4,N,1.2
1502963375.2,286047002.8,N,1.2
1502963395.0,286047002.7,N,1.2
1502963395.9,286047002.7,N,1.2
1502963415.8,286047002.7,N,1.2
1502963435.6,286047002.7,N,1.2
1502963455.4,286047002.3,N,1.1
1502963475.3,286047002.7,N,1.1
1502963495.1,286046999.7,N,1.2
1502963515.9,286047002.6,N,1.2
1502963535.7,286047002.1,N,1.1
1502963555.5,286047002.7,N,1.1
1502963575.4,286047004.3,Y,0.0
1502963595.2,286047000.4,P,0.7
1502963615.0,286047000.0,N,0.8
1502963615.9,286047000.0,N,0.7
1502963635.8,286047001.1,N,0.7
1502963655.6,286047000.0,N,0.7
1502963675.4,286047000.4,N,0.6
1502963695.3,286047000.9,N,0.6
1502963715.1,286047000.5,N,0.6
1502963716.0,286047000.5,N,0.5
1502963735.8,286047002.2,Y,0.0
1502963755.7,286047002.7,P,1.1
1502963775.5,286046999.7,N,1.3
1502963795.3,286047000.0,N,1.2
1502963815.2,286047000.2,N,1.1
1502963835.0,286047000.6,N,1.0
1502963835.9,286047000.6,N,0.9
1502963855.7,286047000.0,N,0.9
1502963875.6,286047000.1,N,0.8
1502963895.4,286047002.5,N,1.0
1502963915.2,286047002.2,N,1.0
1502963935.1,286047002.8,N,1.1
1502963936.0,286047002.8,N,1.2
1502963955.8,286047000.1,N,1.2
1502963975.6,286047000.3,N,1.2
1502963995.5,286047000.1,N,1.1
